Hourly Data Report for January 04, 2020

TORONTO CITY
ONTARIO
Current Station Operator: ECCC - MSC

43°40'00.000" N
79°24'00.000" W
112.50 m
6158355
71508
XTO

Download Data

Hourly Data (January 2020)
Hourly Data Report for January 4, 2020
TIME
LST
Temp Definition
°C
Dew Point Definition
°C
Rel Hum Definition
%
Precip. Amount Definition
mm

Wind Dir Definition
10's deg

Wind Spd Definition
km/h
Visibility Definition
km
Stn Press Definition
kPa
Hmdx Definition


Wind Chill Definition


Weather Definition


00:00 3.8 -1.4 69 0.0       99.51     LegendNANA
01:00 3.7 -1.8 68 0.0       99.50     LegendNANA
02:00 3.2 -1.8 70 0.0       99.46     LegendNANA
03:00 3.0 -2.2 68 0.0       99.50     LegendNANA
04:00 2.6 -2.4 69 0.0       99.47     LegendNANA
05:00 1.4 -1.3 82 0.2       99.46     LegendNANA
06:00 0.9 -1.0 87 0.3       99.44     LegendNANA
07:00 0.8 -0.8 89 0.5       99.42     LegendNANA
08:00 0.9 -0.7 89 0.2       99.46     LegendNANA
09:00 0.9 -0.9 87 0.2       99.47     LegendNANA
10:00 1.4 -1.4 82 0.0       99.53     LegendNANA
11:00 1.8 -1.6 78 0.0       99.48     LegendNANA
12:00 2.5 -1.5 75 0.0       99.38     LegendNANA
13:00 2.6 -1.9 72 0.0       99.32     LegendNANA
14:00 2.6 -2.6 68 0.0       99.26     LegendNANA
15:00 3.0 -3.6 62 0.0       99.26     LegendNANA
16:00 3.0 -4.0 60 0.0       99.29     LegendNANA
17:00 2.6 -3.8 63 0.0       99.36     LegendNANA
18:00 2.5 -4.1 62 0.0       99.45     LegendNANA
19:00 2.0 -3.4 67 0.0       99.49     LegendNANA
20:00 1.0 -2.0 81 0.0       99.56     LegendNANA
21:00 0.7 -1.9 82 0.0       99.57     LegendNANA
22:00 0.9 -3.3 73 0.0       99.57     LegendNANA
23:00 0.8 -5.4 63 0.0       99.60     LegendNANA

Notes on Data Quality.

Legend

  • E = Estimated
  • M = Missing
  • NA = Not Available*
  • [empty] = Indicates an unobserved value
Date modified: